"2016-02-21 00:00:00",1392411,10.92,334,7.372,1.466,17.56,104.8571,11.71,12.94,18.05,0,110.5,13.01,12.50,296.0
"2016-02-21 00:00:30",1392412,9.33,322.4,5.79,0.989,14.23,104.8553,11.7,12.79,18.23,0,110.5,13.01,12.50,284.4
"2016-02-21 00:01:00",1392413,9.85,322.1,1.863,0.176,13.38,104.8532,11.7,12.69,18.15,0,110.5,13.06,12.49,284.1
"2016-02-21 00:01:30",1392414,9.19,319,1.711,0.306,13.52,104.8491,11.69,12.68,18.14,0,110.5,13.05,12.48,281.0
"2016-02-21 00:02:00",1392415,10.24,322.8,7.091,1.354,15.28,104.8378,11.66,12.8,18.35,0,110.5,13,12.45,284.8
"2016-02-21 00:02:30",1392416,12.45,330.9,7.81,1.379,17.91,104.83,11.64,12.89,18.37,0,110.5,13,12.43,292.9
"2016-02-21 00:03:00",1392417,11.87,330,8.02,1.496,16.79,104.8295,11.64,12.86,18.37,0,110.5,13,12.43,292.0
"2016-02-21 00:03:30",1392418,11.62,333.7,7.871,1.543,16.76,104.8298,11.64,12.84,18.38,0,110.5,13,12.43,295.7
"2016-02-21 00:04:00",1392419,10.09,323,3.955,0.663,13.75,104.8324,11.64,12.66,18.11,0,110.5,13,12.44,285.0
"2016-02-21 00:04:30",1392420,10.3,328.1,1.367,0.278,13.59,104.8348,11.65,12.64,17.89,0,110.5,13.05,12.44,290.1
"2016-02-21 00:05:00",1392421,10.62,328.3,4.117,0.762,14.29,104.8351,11.65,12.7,18.14,0,110.5,13,12.44,290.3
"2016-02-21 00:05:30",1392422,11.86,335.2,7.102,1.365,16.42,104.8274,11.63,12.8,18.35,0,110.5,13,12.42,297.2
"2016-02-21 00:06:00",1392423,11.78,331.6,8.43,1.553,18.08,104.8185,11.61,12.86,17.9,0,110.5,13,12.40,293.6
"2016-02-21 00:06:30",1392424,10.95,335.2,7.716,1.765,17.6,104.8148,11.6,12.84,18.32,0,110.5,13.01,12.39,297.2
"2016-02-21 00:07:00",1392425,8.75,329,5.659,1.432,16.01,104.8044,11.57,12.77,17.83,0,110.5,13.01,12.36,291.0
"2016-02-21 00:07:30",1392426,8.34,326.8,4.451,0.238,13.66,104.8022,11.57,12.57,16.82,0,110.5,13.06,12.36,288.8
"2016-02-21 00:08:00",1392427,9.47,336,1.949,0.376,13.49,104.8022,11.57,12.56,17.24,0,110.5,13.06,12.36,298.0
"2016-02-21 00:08:30",1392428,8.42,328.4,6.2,0.446,13.75,104.8019,11.57,12.56,17.68,0,110.5,13.06,12.36,290.4
"2016-02-21 00:09:00",1392429,9.92,331.1,9.02,1.619,16.87,104.7976,11.55,12.75,17.39,0,110.6,13.01,12.35,293.1
"2016-02-21 00:09:30",1392430,10.03,339.8,8.26,1.547,17.53,104.7909,11.54,12.81,17.59,0,110.5,13.01,12.33,301.8
"2016-02-21 00:10:00",1392431,9.9,341.5,7.71,1.51,18.06,104.7867,11.53,12.75,17.46,0,110.5,13.01,12.32,303.5
"2016-02-21 00:10:30",1392432,10.13,336.7,6.921,1.493,15.62,104.7796,11.51,12.64,17.84,0,110.5,13.01,12.30,298.7
"2016-02-21 00:11:00",1392433,9.27,333.3,1.23,0.209,13.5,104.7712,11.49,12.53,17.74,0,110.5,13.06,12.28,295.3
"2016-02-21 00:11:30",1392434,9.23,331.1,2.53,0.286,13.48,104.7686,11.48,12.51,17.79,0,110.5,13.06,12.27,293.1
"2016-02-21 00:12:00",1392435,8.71,328.2,2.367,0.148,13.76,104.7683,11.48,12.5,18.03,0,110.5,13.06,12.27,290.2
"2016-02-21 00:12:30",1392436,9.79,334,6.829,1.294,15.46,104.7683,11.48,12.65,18.33,0,110.5,13.02,12.27,296.0
"2016-02-21 00:13:00",1392437,10.42,336.9,9.26,1.456,17.82,104.7683,11.48,12.75,17.78,0,110.5,13.02,12.27,298.9
"2016-02-21 00:13:30",1392438,11.72,347.8,6.762,1.454,17.99,104.7683,11.48,12.76,17.89,0,110.5,13.02,12.27,309.8
"2016-02-21 00:14:00",1392439,11.31,339.1,7.063,1.496,15.69,104.7669,11.48,12.61,17.76,0,110.5,13.02,12.27,301.1
"2016-02-21 00:14:30",1392440,10.52,332,7.562,1.12,14.23,104.7596,11.46,12.56,17.91,0,110.5,13.02,12.25,294.0
"2016-02-21 00:15:00",1392441,9.61,333.6,3.105,0.39,13.46,104.7523,11.44,12.46,17.85,0,110.5,13.07,12.23,295.6
"2016-02-21 00:15:30",1392442,9.61,336.9,1.065,0.21,13.6,104.7404,11.41,12.47,17.77,0,110.5,13.07,12.20,298.9
"2016-02-21 00:16:00",1392443,11.46,347,7.597,1.472,16.62,104.7348,11.39,12.63,17.99,0,110.5,13.02,12.19,309.0
"2016-02-21 00:16:30",1392444,12.65,348.2,7.275,1.519,17.93,104.7345,11.39,12.73,18.18,0,110.5,13.02,12.18,310.2
"2016-02-21 00:17:00",1392445,12.54,347.2,7.706,1.427,17.49,104.7345,11.39,12.67,18.22,0,110.6,13.02,12.18,309.2
"2016-02-21 00:17:30",1392446,11.83,342.1,8.38,1.616,16.29,104.7286,11.38,12.61,18.02,0,110.5,13.02,12.17,304.1
"2016-02-21 00:18:00",1392447,10.17,337.7,2.438,0.598,13.66,104.7156,11.34,12.38,17.78,0,110.5,13.02,12.14,299.7
"2016-02-21 00:18:30",1392448,10.2,335.5,1.712,0.238,13.5,104.7021,11.31,12.39,17.87,0,110.5,13.06,12.10,297.5
"2016-02-21 00:19:00",1392449,11.42,341.7,6.923,1.488,15.86,104.7007,11.31,12.48,17.81,0,110.5,13.01,12.10,303.7
"2016-02-21 00:19:30",1392450,11.49,339.7,7.625,1.267,16.54,104.7007,11.31,12.55,17.82,0,110.5,13.01,12.10,301.7
"2016-02-21 00:20:00",1392451,11.69,343.8,7.018,1.439,17.52,104.6996,11.3,12.61,17.83,0,110.5,13.01,12.10,305.8
"2016-02-21 00:20:30",1392452,12.45,343.4,6.548,1.36,17.77,104.6906,11.28,12.56,17.76,0,110.5,13.01,12.07,305.4
"2016-02-21 00:21:00",1392453,10.16,331.8,2.853,0.711,14.05,104.6757,11.24,12.37,17.58,0,110.5,13.02,12.03,293.8
"2016-02-21 00:21:30",1392454,10,329.4,1.534,0.289,13.72,104.6681,11.22,12.28,17.54,0,110.5,13.06,12.01,291.4
"2016-02-21 00:22:00",1392455,10.05,337.4,7.354,1.133,15.42,104.669,11.23,12.4,17.72,0,110.5,13.01,12.02,299.4
"2016-02-21 00:22:30",1392456,10.04,341.4,7.147,1.551,16.89,104.6692,11.23,12.46,17.81,0,110.4,13.01,12.02,303.4
"2016-02-21 00:23:00",1392457,10.27,339,7.684,1.95,16.33,104.6651,11.22,12.39,17.75,0,110.4,13.01,12.01,301.0
"2016-02-21 00:23:30",1392458,11.51,334.8,7.56,1.701,17.32,104.6538,11.19,12.47,17.7,0,110.4,13.02,11.98,296.8
"2016-02-21 00:24:00",1392459,10.94,337,7.853,1.449,16.97,104.6445,11.16,12.49,17.6,0,110.4,13.02,11.95,299.0
"2016-02-21 00:24:30",1392460,11.57,327.8,4.579,0.985,14.01,104.6458,11.17,12.2,17.33,0,110.4,13.02,11.96,289.8
"2016-02-21 00:25:00",1392461,11.64,328.1,6.176,1.04,15.05,104.652,11.18,12.29,17.52,0,110.4,13.02,11.97,290.1
"2016-02-21 00:25:30",1392462,11,331.1,6.857,1.312,15.47,104.6462,11.17,12.36,17.51,0,110.4,13.02,11.96,293.1
"2016-02-21 00:26:00",1392463,11.59,339.5,7.142,1.546,16.16,104.6266,11.12,12.24,17.41,0,110.4,13.02,11.91,301.5
"2016-02-21 00:26:30",1392464,11.06,339.9,7.52,1.442,17.06,104.6282,11.12,12.37,17.56,0,110.4,13.03,11.91,301.9
"2016-02-21 00:27:00",1392465,10.57,339.4,7.693,1.401,16.51,104.6317,11.13,12.33,17.52,0,110.4,13.03,11.92,301.4
"2016-02-21 00:27:30",1392466,11.38,335.8,6.417,1.021,14.98,104.6278,11.12,12.2,17.37,0,110.4,13.03,11.91,297.8
"2016-02-21 00:28:00",1392467,12.73,333.7,5.633,1.325,14.86,104.6106,11.08,12.19,17.57,0,110.4,13.03,11.87,295.7
"2016-02-21 00:28:30",1392468,14.19,334.1,6.82,1.527,15.7,104.6005,11.05,12.29,17.74,0,110.4,13.03,11.84,296.1
"2016-02-21 00:29:00",1392469,13.95,330.1,6.481,1.236,14.58,104.6008,11.05,12.14,17.66,0,110.4,13.03,11.84,292.1
"2016-02-21 00:29:30",1392470,14.26,337.2,7.797,1.512,16.98,104.5907,11.02,12.28,17.71,0,110.4,13.03,11.82,299.2
"2016-02-21 00:30:00",1392471,13.9,334.7,7.187,1.452,17.29,104.5769,10.99,12.26,17.7,0,110.4,13.03,11.78,296.7
"2016-02-21 00:30:30",1392472,13.3,331.9,7.251,1.598,15.74,104.567,10.96,12.14,17.63,0,110.4,13.03,11.75,293.9
"2016-02-21 00:31:00",1392473,11.94,335,8.67,1.283,15.4,104.567,10.96,12.1,17.59,0,110.4,13.03,11.75,297.0
"2016-02-21 00:31:30",1392474,12.95,338,7.708,1.392,16.36,104.5574,10.94,12.17,17.64,0,110.4,13.03,11.73,300.0
"2016-02-21 00:32:00",1392475,11.67,329.9,0.881,0.334,13.57,104.5413,10.9,11.94,17.43,0,110.4,13.03,11.69,291.9
"2016-02-21 00:32:30",1392476,11.97,335.6,7.8,1.445,15.7,104.5331,10.88,12.08,17.68,0,110.4,13.03,11.67,297.6
"2016-02-21 00:33:00",1392477,12.39,341.4,7.746,1.431,17.08,104.5331,10.88,12.15,17.74,0,110.4,13.03,11.67,303.4
"2016-02-21 00:33:30",1392478,11.75,343.5,7.932,1.475,16.33,104.5331,10.88,12.12,17.68,0,110.4,13.03,11.67,305.5
"2016-02-21 00:34:00",1392479,10.94,340.6,7.943,1.577,15.96,104.5241,10.85,12.07,17.69,0,110.4,13.03,11.64,302.6
"2016-02-21 00:34:30",1392480,11.13,341.6,6.766,1.527,15.93,104.5134,10.83,11.98,17.6,0,110.4,13.03,11.62,303.6
"2016-02-21 00:35:00",1392481,9.53,337.4,2.549,0.389,13.74,104.5098,10.82,11.84,17.39,0,110.4,13.08,11.61,299.4
"2016-02-21 00:35:30",1392482,10.78,334,4.955,0.884,14.53,104.5002,10.79,11.96,17.67,0,110.4,13.03,11.58,296.0
"2016-02-21 00:36:00",1392483,13.34,338.6,7.247,1.495,16.98,104.4993,10.79,12.05,17.85,0,110.4,13.03,11.58,300.6
"2016-02-21 00:36:30",1392484,14.68,335.3,7.837,1.478,16.87,104.4993,10.79,12.06,17.91,0,110.4,13.03,11.58,297.3
"2016-02-21 00:37:00",1392485,15.64,336.3,6.985,1.447,17.26,104.4988,10.79,12.06,17.9,0,110.4,13.03,11.58,298.3
"2016-02-21 00:37:30",1392486,15.16,331,7.257,1.47,16.11,104.4892,10.77,12.03,17.84,0,110.4,13.03,11.55,293.0
"2016-02-21 00:38:00",1392487,13.86,324.6,6.027,1.241,14.11,104.4749,10.73,11.84,17.59,0,110.4,13.03,11.52,286.6
"2016-02-21 00:38:30",1392488,13.83,328.8,6.095,0.969,14.78,104.4664,10.71,11.88,17.56,0,110.4,13.03,11.50,290.8
"2016-02-21 00:39:00",1392489,14.35,334.6,7.516,1.482,16.65,104.4693,10.71,11.97,17.68,0,110.3,13.03,11.50,296.6
"2016-02-21 00:39:30",1392490,13.89,336.9,7.076,1.333,17.4,104.4723,10.72,11.96,17.81,0,110.3,13.03,11.51,298.9
"2016-02-21 00:40:00",1392491,13.63,337.9,7.063,1.364,17.24,104.4689,10.71,11.94,17.89,0,110.3,13.03,11.50,299.9
"2016-02-21 00:40:30",1392492,12.07,329.1,7.508,1.392,15.03,104.4626,10.7,11.86,17.93,0,110.3,13.03,11.49,291.1
"2016-02-21 00:41:00",1392493,11.34,330.2,5.47,1.001,14.45,104.4506,10.67,11.76,17.88,0,110.3,13.03,11.46,292.2
"2016-02-21 00:41:30",1392494,11.64,333,5.686,1.145,14.76,104.4443,10.65,11.8,17.93,0,110.3,13.04,11.44,295.0
"2016-02-21 00:42:00",1392495,11.98,332.1,7.06,1.443,16.09,104.4467,10.66,11.86,18.13,0,110.3,13.04,11.45,294.1
"2016-02-21 00:42:30",1392496,12.78,333.5,7.244,1.498,16.95,104.4491,10.66,11.89,18.19,0,110.3,13.04,11.45,295.5
"2016-02-21 00:43:00",1392497,12.16,333.1,8.24,1.395,16.58,104.4395,10.64,11.88,18.19,0,110.3,13.04,11.43,295.1
"2016-02-21 00:43:30",1392498,10.7,329.5,8.86,1.539,15.39,104.4277,10.61,11.75,17.98,0,110.3,13.04,11.40,291.5
"2016-02-21 00:44:00",1392499,8.69,326.7,2.976,0.725,13.81,104.421,10.59,11.69,17.94,0,110.3,13.09,11.38,288.7
"2016-02-21 00:44:30",1392500,9.76,329.8,6.726,1.684,15.09,104.4208,10.59,11.74,17.99,0,110.3,13.05,11.38,291.8
"2016-02-21 00:45:00",1392501,11.06,334.3,8.21,1.489,15.52,104.424,10.6,11.81,18.14,0,110.3,13.05,11.39,296.3
"2016-02-21 00:45:30",1392502,12.04,336.3,7.524,1.439,16.13,104.4238,10.6,11.75,18.17,0,110.3,13.05,11.39,298.3
"2016-02-21 00:46:00",1392503,12.53,338.6,8.51,1.402,16.71,104.4193,10.59,11.78,18.16,0,110.3,13.05,11.38,300.6
"2016-02-21 00:46:30",1392504,12.73,335.6,7.461,1.494,15.84,104.4111,10.57,11.77,18.23,0,110.3,13.05,11.35,297.6
"2016-02-21 00:47:00",1392505,11.29,335.1,4.709,1.163,13.82,104.4108,10.56,11.6,18.09,0,110.3,13.05,11.35,297.1
"2016-02-21 00:47:30",1392506,11.64,335.9,6.498,1.313,14.76,104.3998,10.54,11.65,18.25,0,110.3,13.05,11.33,297.9
"2016-02-21 00:48:00",1392507,13.2,338.5,7.483,1.394,16.85,104.3976,10.53,11.7,18.38,0,110.3,13.05,11.32,300.5
"2016-02-21 00:48:30",1392508,11.8,332.9,7.844,1.484,16.37,104.3993,10.54,11.74,18.4,0,110.3,13.05,11.32,294.9
"2016-02-21 00:49:00",1392509,9.94,329,7.534,1.378,14.63,104.3985,10.53,11.64,18.3,0,110.3,13.05,11.32,291.0
"2016-02-21 00:49:30",1392510,10.38,328.6,8.42,1.252,16.66,104.3923,10.52,11.68,18.29,0,110.3,13.05,11.31,290.6
"2016-02-21 00:50:00",1392511,7.353,320,5.301,0.537,13.51,104.3889,10.51,11.51,17.84,0,110.3,13.05,11.30,282.0
"2016-02-21 00:50:30",1392512,9.32,330.3,5.756,1.368,14.04,104.3816,10.49,11.51,18.12,0,110.3,13.05,11.28,292.3
"2016-02-21 00:51:00",1392513,11.31,337.3,7.318,1.521,16.11,104.3745,10.47,11.67,18.44,0,110.3,13.05,11.26,299.3
"2016-02-21 00:51:30",1392514,11.86,330.8,8.68,1.319,17.25,104.3672,10.45,11.65,17.95,0,110.3,13.05,11.24,292.8
"2016-02-21 00:52:00",1392515,11.42,332.2,8.08,1.344,17.15,104.3669,10.45,11.66,17.87,0,110.3,13.05,11.24,294.2
"2016-02-21 00:52:30",1392516,9.29,333.5,8.1,1.234,15.13,104.3658,10.45,11.63,17.92,0,110.3,13.05,11.24,295.5
"2016-02-21 00:53:00",1392517,8.74,323.9,11.43,1.301,14.9,104.3658,10.45,11.5,17.41,0,110.3,13.04,11.24,285.9
"2016-02-21 00:53:30",1392518,8.29,316.3,10.46,1.702,14.52,104.3655,10.45,11.55,16.85,0,110.3,13.05,11.24,278.3
"2016-02-21 00:54:00",1392519,9.59,331.3,9.14,1.39,15.73,104.3658,10.45,11.58,16.73,0,110.3,13.04,11.24,293.3
"2016-02-21 00:54:30",1392520,10.78,336.9,8.28,1.456,15.37,104.3655,10.45,11.67,17.55,0,110.3,13.04,11.24,298.9
"2016-02-21 00:55:00",1392521,12.98,336.4,8.02,1.482,16.1,104.3658,10.45,11.64,18.32,0,110.3,13.04,11.24,298.4
"2016-02-21 00:55:30",1392522,12.87,336.1,9.43,1.592,15.61,104.3658,10.45,11.63,18.61,0,110.3,13.04,11.24,298.1
"2016-02-21 00:56:00",1392523,11.99,334,8.31,1.626,16.23,104.3661,10.45,11.63,18.49,0,110.3,13.04,11.24,296.0
"2016-02-21 00:56:30",1392524,7.976,327.7,3.562,0.787,13.97,104.3667,10.45,11.54,18.25,0,110.3,13.09,11.24,289.7
"2016-02-21 00:57:00",1392525,8.8,339.3,8.01,1.653,16.16,104.3675,10.45,11.6,17.69,0,110.3,13.04,11.24,301.3
"2016-02-21 00:57:30",1392526,8.88,338.3,6.521,1.368,15.76,104.369,10.46,11.66,18.16,0,110.3,13.05,11.25,300.3
"2016-02-21 00:58:00",1392527,9.53,330.9,7.695,1.351,15.5,104.372,10.47,11.57,18.23,0,110.3,13.05,11.25,292.9
"2016-02-21 00:58:30",1392528,8.98,333.6,8.48,1.39,15.26,104.3734,10.47,11.62,18.33,0,110.3,13.05,11.26,295.6
"2016-02-21 00:59:00",1392529,9.9,330.8,8.14,1.712,15.02,104.3737,10.47,11.62,18.2,0,110.3,13.05,11.26,292.8
"2016-02-21 00:59:30",1392530,9.56,326.5,5.719,1.406,14.56,104.3755,10.47,11.54,18.17,0,110.3,13.05,11.26,288.5
"2016-02-21 01:00:00",1392531,9.65,327.1,7.65,1.337,14.84,104.3752,10.47,11.61,18.22,0,110.3,13.06,11.26,289.1
"2016-02-21 01:00:30",1392532,10.58,334.9,6.729,1.426,17.23,104.3796,10.48,11.66,18.22,0,110.3,13.06,11.27,296.9
"2016-02-21 01:01:00",1392533,9.06,321.9,9.1,1.378,15.6,104.3793,10.48,11.64,17.93,0,110.3,13.06,11.27,283.9
"2016-02-21 01:01:30",1392534,9.56,319.7,9.88,1.354,15.8,104.3805,10.49,11.62,17.68,0,110.3,13.06,11.28,281.7
"2016-02-21 01:02:00",1392535,9.44,321.8,7.807,1.5,15.41,104.3811,10.49,11.6,17.7,0,110.3,13.06,11.28,283.8
"2016-02-21 01:02:30",1392536,9.02,317.4,5.377,0.986,14.56,104.3837,10.5,11.56,17.77,0,110.3,13.06,11.28,279.4
"2016-02-21 01:03:00",1392537,10.93,321,8.64,1.275,15.03,104.3837,10.5,11.64,17.99,0,110.3,13.06,11.28,283.0
"2016-02-21 01:03:30",1392538,11.07,326.7,7.604,1.794,16.28,104.3867,10.5,11.62,18.23,0,110.3,13.06,11.29,288.7
"2016-02-21 01:04:00",1392539,9.53,326.3,7.68,1.479,15.5,104.3867,10.5,11.68,18.51,0,110.3,13.06,11.29,288.3
"2016-02-21 01:04:30",1392540,10.31,334.9,7.231,1.368,17.1,104.3905,10.51,11.65,18.4,0,110.3,13.06,11.30,296.9
"2016-02-21 01:05:00",1392541,8.81,329.4,6.231,1.471,15.37,104.3905,10.51,11.69,18.38,0,110.3,13.06,11.30,291.4
"2016-02-21 01:05:30",1392542,8.38,324.2,6.952,0.783,14.15,104.3934,10.52,11.5,18.08,0,110.3,13.06,11.31,286.2
"2016-02-21 01:06:00",1392543,9.02,327.1,7.004,1.24,14.83,104.3949,10.52,11.61,18.14,0,110.3,13.06,11.31,289.1
"2016-02-21 01:06:30",1392544,9.22,332.9,6.649,1.451,15.9,104.394,10.52,11.71,18.42,0,110.3,13.06,11.31,294.9
"2016-02-21 01:07:00",1392545,9.39,322.5,7.235,1.638,15.88,104.3976,10.53,11.63,18.29,0,110.3,13.06,11.32,284.5
"2016-02-21 01:07:30",1392546,8.96,335.4,8.23,1.424,15.56,104.3976,10.53,11.66,18.36,0,110.3,13.06,11.32,297.4
"2016-02-21 01:08:00",1392547,10.19,334.8,8.4,1.572,16.14,104.3988,10.53,11.69,18.52,0,110.3,13.06,11.32,296.8
"2016-02-21 01:08:30",1392548,8.7,323.2,5.88,1.338,14.12,104.398,10.53,11.58,18.53,0,110.3,13.06,11.32,285.2
"2016-02-21 01:09:00",1392549,9.68,324.2,8.87,1.664,14.82,104.3963,10.53,11.56,18.57,0,110.3,13.07,11.32,286.2
"2016-02-21 01:09:30",1392550,9.98,322.7,7.587,1.512,15.77,104.3926,10.52,11.64,18.77,0,110.3,13.06,11.31,284.7
"2016-02-21 01:10:00",1392551,9.21,326,8.91,1.665,16.08,104.3912,10.51,11.68,18.91,0,110.3,13.06,11.30,288.0
"2016-02-21 01:10:30",1392552,9.99,339.3,7.73,1.674,16.62,104.3859,10.5,11.67,18.86,0,110.3,13.05,11.29,301.3
"2016-02-21 01:11:00",1392553,11.5,335.3,8.23,1.502,15.43,104.3805,10.49,11.58,18.79,0,110.3,13.05,11.28,297.3
"2016-02-21 01:11:30",1392554,10.02,330.6,7.598,1.375,14.44,104.3799,10.49,11.58,18.81,0,110.3,13.05,11.27,292.6
"2016-02-21 01:12:00",1392555,9.13,331.4,5.254,0.843,13.93,104.3715,10.46,11.55,18.77,0,110.2,13.05,11.25,293.4
"2016-02-21 01:12:30",1392556,10.01,335.7,6.838,1.309,16.07,104.367,10.45,11.61,18.84,0,110.3,13.05,11.24,297.7
"2016-02-21 01:13:00",1392557,10.12,337.2,7.797,1.511,16.46,104.367,10.45,11.64,18.88,0,110.3,13.05,11.24,299.2
"2016-02-21 01:13:30",1392558,9.46,330.6,7.02,1.448,15.18,104.367,10.45,11.58,18.81,0,110.3,13.05,11.24,292.6
"2016-02-21 01:14:00",1392559,9.7,335.5,8.22,1.521,15.94,104.3644,10.45,11.62,18.83,0,110.3,13.05,11.23,297.5
"2016-02-21 01:14:30",1392560,8.67,331.5,7.612,1.565,14.91,104.3545,10.42,11.52,18.79,0,110.3,13.06,11.21,293.5
"2016-02-21 01:15:00",1392561,7.582,327.5,3.287,0.367,13.12,104.3503,10.41,11.44,18.74,0,110.3,13.11,11.20,289.5
"2016-02-21 01:15:30",1392562,9.57,335.1,8.02,1.385,16.26,104.345,10.4,11.6,18.94,0,110.3,13.07,11.18,297.1
"2016-02-21 01:16:00",1392563,9.15,331.7,7.099,1.306,15.29,104.3334,10.37,11.55,18.94,0,110.3,13.07,11.16,293.7
"2016-02-21 01:16:30",1392564,10.23,332.3,8.17,1.566,16.3,104.3331,10.37,11.53,19.02,0,110.3,13.07,11.15,294.3
"2016-02-21 01:17:00",1392565,9.77,331.3,6.952,1.502,15.11,104.3331,10.37,11.51,19.07,0,110.3,13.07,11.15,293.3
"2016-02-21 01:17:30",1392566,9.44,333.2,8.41,1.425,14.64,104.3331,10.37,11.51,19.06,0,110.3,13.07,11.15,295.2
"2016-02-21 01:18:00",1392567,9.5,328.2,5.868,1.022,13.71,104.3323,10.36,11.44,19.04,0,110.3,13.07,11.15,290.2
"2016-02-21 01:18:30",1392568,9.88,332.9,7.311,1.58,14.82,104.3246,10.34,11.5,19.16,0,110.3,13.07,11.13,294.9
"2016-02-21 01:19:00",1392569,10.41,336.7,7.897,1.51,16.8,104.317,10.32,11.63,19.29,0,110.2,13.07,11.11,298.7
"2016-02-21 01:19:30",1392570,9.96,333.8,9.09,1.611,15.85,104.3128,10.31,11.43,19.17,0,110.3,13.07,11.10,295.8
"2016-02-21 01:20:00",1392571,9.64,332,6.285,1.257,15.35,104.3018,10.29,11.53,19.25,0,110.3,13.07,11.07,294.0
"2016-02-21 01:20:30",1392572,10.32,333.7,7.788,1.467,15.92,104.2992,10.28,11.47,19.21,0,110.3,13.07,11.07,295.7
"2016-02-21 01:21:00",1392573,8.63,323,0.871,0.167,12.97,104.2992,10.28,11.3,19.09,0,110.3,13.12,11.07,285.0
"2016-02-21 01:21:30",1392574,9.95,327.7,7.551,1.613,15.37,104.2992,10.28,11.49,19.32,0,110.3,13.07,11.07,289.7
"2016-02-21 01:22:00",1392575,10.17,330.4,7.48,1.497,15.94,104.2992,10.28,11.49,19.37,0,110.3,13.07,11.07,292.4
"2016-02-21 01:22:30",1392576,9.6,328.4,7.933,1.49,15.92,104.2973,10.27,11.43,19.31,0,110.3,13.07,11.06,290.4
"2016-02-21 01:23:00",1392577,9.39,328.2,8.65,1.372,15.36,104.2882,10.25,11.46,19.36,0,110.3,13.07,11.04,290.2
"2016-02-21 01:23:30",1392578,9.18,330.6,7.365,1.387,15.29,104.2795,10.23,11.49,19.39,0,110.3,13.07,11.02,292.6
"2016-02-21 01:24:00",1392579,8.79,327.7,5.645,1.035,13.71,104.2677,10.2,11.26,19.19,0,110.3,13.07,10.99,289.7
"2016-02-21 01:24:30",1392580,10.02,333.4,7.407,1.445,15.8,104.268,10.2,11.39,19.31,0,110.3,13.07,10.99,295.4
"2016-02-21 01:25:00",1392581,9.52,328.4,6.843,1.403,15.42,104.2686,10.2,11.42,19.46,0,110.3,13.07,10.99,290.4
"2016-02-21 01:25:30",1392582,9.21,326.3,7.346,1.335,15.27,104.2695,10.2,11.42,19.49,0,110.3,13.07,10.99,288.3
"2016-02-21 01:26:00",1392583,10.46,335.1,7.129,1.364,16.14,104.2689,10.2,11.37,19.47,0,110.3,13.07,10.99,297.1
"2016-02-21 01:26:30",1392584,9.75,333.5,7.74,1.523,14.79,104.2699,10.2,11.39,19.5,0,110.3,13.06,10.99,295.5
"2016-02-21 01:27:00",1392585,9.71,333.3,5.326,1.29,13.95,104.2654,10.19,11.23,19.32,0,110.3,13.06,10.98,295.3
"2016-02-21 01:27:30",1392586,10.78,336.4,7.908,1.427,15.18,104.2584,10.17,11.41,19.47,0,110.2,13.06,10.96,298.4
"2016-02-21 01:28:00",1392587,11.95,341.1,7.254,1.454,16.09,104.2499,10.15,11.39,19.46,0,110.2,13.06,10.94,303.1
"2016-02-21 01:28:30",1392588,11.76,333.5,7.922,1.469,15.14,104.2383,10.12,11.38,19.47,0,110.3,13.06,10.91,295.5
"2016-02-21 01:29:00",1392589,11.95,333.7,7.536,1.4,16.01,104.2407,10.13,11.34,19.57,0,110.2,13.06,10.92,295.7
"2016-02-21 01:29:30",1392590,11.05,329.8,6.881,1.503,15.18,104.2421,10.13,11.35,19.68,0,110.2,13.06,10.92,291.8
"2016-02-21 01:30:00",1392591,10.28,326.6,7.727,1.561,15.02,104.2377,10.12,11.23,19.51,0,110.2,13.06,10.91,288.6
"2016-02-21 01:30:30",1392592,10.26,321.3,6.312,1.459,14.83,104.2298,10.1,11.26,19.58,0,110.2,13.06,10.89,283.3
"2016-02-21 01:31:00",1392593,8.92,322.8,8.73,1.946,15.91,104.2277,10.1,11.36,19.71,0,110.2,13.06,10.88,284.8
"2016-02-21 01:31:30",1392594,7.498,318.4,7.522,1.409,15.69,104.2164,10.07,11.2,19.57,0,110.2,13.07,10.85,280.4
"2016-02-21 01:32:00",1392595,8.1,319.1,9.41,1.542,14.82,104.2147,10.06,11.23,19.51,0,110.2,13.07,10.85,281.1
"2016-02-21 01:32:30",1392596,8.63,323.6,6.762,1.473,15.93,104.215,10.06,11.29,19.63,0,110.2,13.07,10.85,285.6
"2016-02-21 01:33:00",1392597,7.149,320.4,3.617,0.711,12.79,104.2156,10.07,11.08,19.57,0,110.2,13.07,10.85,282.4
"2016-02-21 01:33:30",1392598,9.2,331.2,7.463,1.481,15.93,104.2174,10.07,11.24,19.76,0,110.2,13.07,10.86,293.2
"2016-02-21 01:34:00",1392599,8.62,325.9,6.849,1.369,14.79,104.218,10.07,11.25,19.83,0,110.2,13.07,10.86,287.9
"2016-02-21 01:34:30",1392600,9.09,329.7,7.368,1.582,16.16,104.2197,10.08,11.24,19.9,0,110.2,13.07,10.86,291.7
"2016-02-21 01:35:00",1392601,9.02,321.8,6.59,1.329,14.31,104.22,10.08,11.17,19.81,0,110.2,13.07,10.86,283.8
"2016-02-21 01:35:30",1392602,9.42,324.7,7.599,1.461,15.57,104.2206,10.08,11.19,19.86,0,110.2,13.07,10.87,286.7
"2016-02-21 01:36:00",1392603,8.55,317.7,4.248,0.919,13.61,104.221,10.08,11.12,19.86,0,110.2,13.07,10.87,279.7
"2016-02-21 01:36:30",1392604,8.64,319.4,7.2,1.36,14.39,104.2162,10.07,11.16,20.03,0,110.2,13.07,10.85,281.4
"2016-02-21 01:37:00",1392605,9.36,326.2,6.415,1.59,16.13,104.2132,10.06,11.22,20.04,0,110.2,13.07,10.85,288.2
"2016-02-21 01:37:30",1392606,8.47,314.9,5.558,1.682,14.85,104.2013,10.03,11.17,20.15,0,110.2,13.07,10.82,276.9
"2016-02-21 01:38:00",1392607,8.77,326.8,7.07,1.429,15.95,104.1961,10.02,11.2,20.19,0,110.3,13.07,10.80,288.8
"2016-02-21 01:38:30",1392608,8.22,328.1,8.65,1.555,15.2,104.1918,10,11.22,20.07,0,110.2,13.07,10.79,290.1
"2016-02-21 01:39:00",1392609,7.564,328.9,4.1,0.737,12.78,104.1938,10.01,11.01,19.81,0,110.2,13.07,10.80,290.9
"2016-02-21 01:39:30",1392610,8.24,327.9,7.732,1.39,14.64,104.1926,10.01,11.19,20.13,0,110.2,13.07,10.79,289.9
"2016-02-21 01:40:00",1392611,8.4,330.8,6.355,1.558,15.34,104.1935,10.01,11.21,20.23,0,110.2,13.08,10.80,292.8
"2016-02-21 01:40:30",1392612,8.39,332.7,8.96,1.358,15.92,104.1962,10.02,11.19,20.11,0,110.2,13.07,10.80,294.7
"2016-02-21 01:41:00",1392613,7.067,331.1,5.666,1.154,14.26,104.1947,10.01,11.21,20.13,0,110.2,13.08,10.80,293.1
"2016-02-21 01:41:30",1392614,8.47,332.8,7.757,1.39,15.02,104.195,10.01,11.09,20.09,0,110.2,13.08,10.80,294.8
"2016-02-21 01:42:00",1392615,6.969,328.5,5.498,0.972,13.57,104.189,10,11.07,20.26,0,110.2,13.08,10.78,290.5
"2016-02-21 01:42:30",1392616,7.88,330.1,6.774,1.344,13.81,104.1869,9.99,11.01,20.11,0,110.2,13.08,10.78,292.1
"2016-02-21 01:43:00",1392617,8.51,337,7.702,1.373,15.06,104.1844,9.99,11.2,20.22,0,110.2,13.07,10.77,299.0
"2016-02-21 01:43:30",1392618,8.7,339.9,7.59,1.441,15.41,104.1782,9.97,11.15,20.22,0,110.2,13.07,10.76,301.9
"2016-02-21 01:44:00",1392619,8.01,335.5,7.338,1.321,14.8,104.1717,9.95,11.1,20.17,0,110.2,13.07,10.74,297.5
"2016-02-21 01:44:30",1392620,9.58,339.7,9.03,1.477,15.37,104.1653,9.94,11.09,20.17,0,110.2,13.07,10.72,301.7
"2016-02-21 01:45:00",1392621,9.42,337.4,7.178,1.371,14.11,104.1653,9.94,11.04,20.14,0,110.2,13.07,10.72,299.4
"2016-02-21 01:45:30",1392622,8.27,331.4,5.281,0.805,13.55,104.1653,9.94,10.99,20.08,0,110.2,13.07,10.72,293.4
"2016-02-21 01:46:00",1392623,8.51,333.4,8.37,1.499,15.42,104.165,9.94,11.08,20.19,0,110.2,13.07,10.72,295.4
"2016-02-21 01:46:30",1392624,8.85,330.4,8.17,1.437,15.82,104.1624,9.93,11.1,20.26,0,110.2,13.07,10.72,292.4
"2016-02-21 01:47:00",1392625,8.69,329.5,8.08,1.442,15.83,104.1554,9.91,11.08,20.43,0,110.2,13.07,10.70,291.5
"2016-02-21 01:47:30",1392626,7.536,328.6,7.775,1.307,14.43,104.1514,9.9,11.04,20.34,0,110.2,13.07,10.69,290.6